Regional Weather Roundup
Issued by NWS

Home | Current Version | Previous Version | Graphics & Text | Print | Product List | Glossary On
Versions: 1 2 3 4 5 6 7 8 9 10 11 12 13 14 15 16 17 18 19 20 21 22 23 24 25 26 27 28 29 30 31 32 33 34 35 36 37 38 39 40 41 42 43 44 45 46 47 48 49 50
000
ASUS43 KBIS 301402
RWRND

NORTH DAKOTA REGIONAL WEATHER ROUNDUP
NATIONAL WEATHER SERVICE BISMARCK ND
900 AM CDT TUE MAY 30 2017

NOTE: "FAIR" INDICATES FEW OR NO CLOUDS BELOW 12,000 FEET WITH NO
SIGNIFICANT WEATHER AND/OR OBSTRUCTIONS TO VISIBILITY.


NDZ001>003-009>011-017-301500-
NORTHWEST NORTH DAKOTA

CITY           SKY/WX    TMP DP  RH WIND       PRES   REMARKS
WILLISTON      FAIR      53  39  59 E6        30.16S
MINOT          PTSUNNY   52  40  63 NW16      30.08R
MINOT AFB      CLOUDY    51  39  63 N18G25    30.07S
$$

NDZ018>021-031>035-040>046-301500-
SOUTHWEST NORTH DAKOTA

CITY           SKY/WX    TMP DP  RH WIND       PRES   REMARKS
BISMARCK       FAIR      54  40  59 NW12      30.09F
DICKINSON      FAIR      51  33  50 N7        30.10S
GARRISON         N/A     50  39  66 N20       30.09R
HETTINGER ARPT SUNNY     57  31  37 NW13      30.12R
$$

NDZ004>008-012>016-024-026-027-054-301500-
NORTHEAST NORTH DAKOTA

CITY           SKY/WX    TMP DP  RH WIND       PRES   REMARKS
GRAND FORKS    CLOUDY    49  45  86 NW16      29.96S
GRND FRKS AFB  CLOUDY    48  43  81 N13G21    29.97S
DEVILS LAKE    CLOUDY    46  42  86 N13       30.03R
$$

NDZ022-023-025-028>030-036>039-047>053-301500-
SOUTHEAST NORTH DAKOTA

CITY           SKY/WX    TMP DP  RH WIND       PRES   REMARKS
FARGO          CLOUDY    50  44  80 NW16      29.97S
JAMESTOWN      CLOUDY    49  42  77 NW15      30.01S
$$





USA.gov is the U.S. government's official web portal to all federal, state and local government web resources and services.